Vertical_Velocity
-3 -2 -2 -1 0 0 1 0 0 0 1 1 1 1 1 2 3 3 3 3 2 1 -0 -1 -2 -3 -4 -4 -2 -2 -2 -1 0 1 2 1 1 2 3 3 3 3 3 4 4 4 4 4 4 3 3 3 3 2 2 2 2 2 1 0 -0 -0 -1 -1 -1 -1 -0 0 0
-3 -2 -1 -1 -1 -1 -0 -1 -0 1 2 2 1 1 1 2 2 2 1 2 1 1 -0 -1 -1 -3 -5 -6 -5 -5 -4 -2 -1 1 1 1 1 1 1 2 2 2 2 3 3 4 4 4 4 4 3 3 3 2 2 2 2 1 1 0 -0 -0 -0 -0 -1 -1 -1 -1 -1
-2 -2 -2 -2 -2 -1 -1 -1 1 2 3 2 1 0 0 1 2 1 0 -1 -0 0 1 1 0 -2 -4 -6 -6 -6 -5 -3 -1 0 1 2 1 0 -0 0 0 1 2 2 3 3 4 4 4 4 3 3 3 2 2 2 2 2 1 0 0 0 0 -0 -1 -1 -1 -2 -1
-2 -2 -2 -2 -1 -1 -1 -1 1 1 1 1 1 0 0 1 1 1 -0 -1 -1 1 2 2 1 -1 -2 -4 -5 -6 -5 -3 -1 0 1 2 2 0 -0 -1 -0 1 2 2 3 3 4 4 4 4 3 3 2 2 2 2 2 2 1 1 1 1 1 0 -1 -2 -2 -2 -2
-2 -2 -1 -1 -1 -1 -1 -1 -1 -0 0 0 0 1 1 1 1 1 1 1 1 1 1 1 0 -0 -1 -2 -2 -3 -3 -2 -1 -0 0 1 1 0 -1 -2 -1 1 2 3 3 4 4 4 4 3 3 2 2 2 2 2 2 2 2 2 2 2 1 0 -1 -1 -2 -2 -2
-1 -1 -1 -1 -1 -2 -2 -2 -1 -1 -0 -0 0 1 1 1 1 2 3 3 2 2 1 1 1 0 0 -0 -0 -0 -0 -0 -1 -1 -1 -1 -0 -1 -2 -4 -2 -1 1 2 3 3 3 4 3 3 2 2 2 2 2 2 2 2 2 2 2 2 2 1 -0 -1 -1 -2 -2
-2 -2 -1 -1 -1 -1 -1 -1 -1 -1 -1 -0 1 1 1 1 2 3 3 3 3 3 3 3 3 3 1 0 0 0 1 1 0 -1 -2 -2 -2 -3 -4 -5 -4 -3 -1 0 2 3 3 4 3 3 2 2 2 2 2 2 2 3 3 3 3 3 2 2 0 -0 -1 -1 -1
-3 -2 -2 -1 -1 -1 -0 -1 -1 -1 -1 0 1 1 0 -0 1 2 3 3 3 3 3 4 4 3 2 1 0 -0 0 1 1 -0 -2 -2 -2 -3 -4 -6 -5 -4 -2 -1 1 2 3 4 4 3 2 2 2 2 2 2 3 3 3 3 3 3 2 2 1 0 0 -0 -1
-3 -3 -2 -2 -2 -1 -1 -0 -0 -0 0 1 1 1 0 0 1 1 2 2 2 2 2 3 3 3 3 2 1 0 0 1 1 0 -1 -2 -3 -4 -5 -6 -5 -3 -2 -1 0 2 3 4 4 3 3 2 2 2 2 3 3 3 3 4 3 3 2 2 1 1 1 1 0
-2 -3 -3 -3 -2 -2 -1 -1 -0 1 1 1 1 1 1 1 1 1 1 1 1 1 1 1 2 2 2 2 1 0 1 1 1 1 0 -1 -2 -4 -6 -8 -7 -4 -1 1 2 3 3 4 4 3 3 3 2 2 2 3 3 3 3 4 3 3 2 2 2 2 2 1 0
-2 -2 -2 -2 -2 -2 -2 -1 -0 0 1 1 0 0 1 1 1 1 0 0 0 -0 -0 1 1 1 1 1 1 0 0 1 2 2 2 1 -0 -2 -5 -9 -9 -7 -4 0 3 4 5 5 4 4 3 2 2 2 2 2 3 3 3 3 3 3 2 2 2 2 1 1 0
-1 -1 -1 -1 -2 -2 -2 -1 -1 -0 0 1 1 1 1 1 1 0 -0 -1 -0 -0 0 -0 -0 0 0 0 0 -0 0 1 2 2 2 2 1 -0 -2 -5 -6 -6 -4 -1 2 3 4 5 5 5 4 3 2 2 1 1 2 2 2 3 3 3 2 2 2 2 1 0 -0
-1 -1 -1 -1 -1 -1 -1 -1 -1 -1 -0 0 0 1 1 1 0 -0 -0 -0 0 1 0 -0 0 1 1 0 -0 -0 -0 0 1 1 1 1 1 0 -0 -1 -2 -2 -1 -0 1 2 3 3 4 4 4 3 3 2 1 1 1 1 1 2 2 2 2 2 2 2 1 0 -0
-1 -1 -1 -1 -1 -1 -1 -1 -1 -1 -0 0 0 0 1 0 -0 -0 -0 1 1 1 0 0 2 2 2 1 0 -0 -1 -1 -1 -1 -1 -1 -1 -1 -1 -2 -1 -1 -0 -0 0 1 2 1 2 2 2 2 1 1 1 0 -0 -0 -0 0 1 1 2 2 2 1 1 -0 -1
-2 -1 -1 -1 -1 -0 -0 -1 -1 -1 -0 -0 -0 0 0 -0 -0 -0 0 1 0 0 1 1 2 1 1 1 1 0 -0 -1 -1 -1 -1 -2 -2 -2 -2 -2 -2 -1 -1 -1 -0 0 1 1 1 1 0 -0 -1 -1 -1 -1 -1 -1 -1 -1 -0 0 0 1 1 0 0 -1 -0
-1 -2 -2 -1 -1 -0 -0 -0 -1 -1 -1 -0 -1 -1 -0 -0 -0 0 0 0 0 0 0 1 0 0 -0 -0 0 0 0 -1 -1 -1 -1 -2 -2 -3 -3 -3 -2 -2 -2 -1 -1 -1 -0 0 0 0 -0 -1 -1 -2 -2 -2 -2 -2 -2 -2 -1 -1 -1 -1 -0 -0 -1 -1 0
-0 -1 -1 -1 -1 -1 -1 -0 -0 -1 -1 -1 -1 -1 -1 -0 -0 0 0 1 0 -0 -0 -0 -0 -1 -1 -1 -1 -0 -0 -1 -1 -1 -1 -2 -2 -2 -2 -2 -2 -2 -2 -1 -1 -1 -1 -0 -0 -0 -0 -1 -1 -2 -2 -2 -2 -3 -3 -3 -2 -2 -2 -2 -1 -1 -1 -0 0
1 0 -1 -1 -1 -1 -1 -0 -0 -0 -0 -1 -1 -1 -1 -1 -1 -0 1 1 -0 -0 -0 -0 -1 -2 -2 -2 -2 -2 -1 -1 -1 -1 -2 -2 -2 -2 -2 -2 -2 -2 -2 -1 -1 -1 -1 -1 -1 -1 -1 -1 -1 -2 -2 -2 -2 -3 -3 -3 -3 -3 -3 -3 -2 -2 -1 -0 0
1 1 0 -0 -1 -1 -1 -1 -1 -0 -0 -1 -1 -1 -1 -1 -1 0 0 0 -0 -0 -0 -0 -1 -2 -1 -1 -2 -2 -2 -2 -2 -2 -2 -2 -2 -2 -2 -2 -2 -2 -1 -1 -1 -1 -1 -1 -1 -1 -1 -1 -2 -2 -2 -2 -2 -2 -3 -3 -4 -4 -3 -3 -2 -2 -1 -0 0
1 1 1 1 -0 -1 -1 -1 -1 -1 -1 -1 -1 -1 -1 -1 -0 -0 -0 -1 -0 -0 -0 -1 -1 -1 -1 -1 -2 -2 -2 -2 -2 -3 -3 -3 -2 -2 -2 -1 -1 -1 -1 -1 -1 -1 -1 -1 -1 -1 -1 -2 -2 -2 -2 -2 -2 -2 -3 -3 -3 -3 -3 -3 -2 -1 -1 -0 -0
1 1 1 1 0 -0 -1 -1 -1 -1 -1 -1 -1 -1 -1 -0 -0 -0 -0 -0 -1 -1 -1 -1 -1 -1 -1 -2 -2 -2 -2 -2 -2 -3 -3 -2 -2 -1 -1 -1 -1 -1 -1 -0 -1 -1 -1 -1 -1 -1 -1 -1 -2 -2 -2 -2 -2 -2 -2 -2 -2 -2 -2 -2 -1 -1 -0 -0 -0
1 1 1 1 1 0 -0 -1 -1 -1 -1 -1 -1 -1 -1 -1 -0 0 0 -0 -1 -1 -1 -0 -1 -1 -1 -1 -2 -1 -1 -2 -2 -2 -1 -1 -1 -1 -1 -1 -1 -1 -0 -0 -0 -0 -0 -0 -0 -0 -1 -1 -1 -1 -1 -1 -1 -1 -1 -1 -1 -2 -1 -1 -1 -0 -0 -0 0
1 1 1 1 1 1 0 0 -0 -1 -1 -2 -2 -2 -2 -1 -1 -0 -0 -0 -1 -0 0 0 -1 -1 -1 -1 -1 -1 -1 -2 -1 -1 -1 -1 -1 -1 -1 -1 -0 -0 -0 0 0 0 0 0 0 0 -0 -1 -1 -1 -1 -1 -1 -1 -1 -1 -1 -1 -1 -1 -0 0 0 0 0
1 1 1 1 1 1 0 0 0 0 -0 -1 -2 -2 -2 -2 -1 -1 -0 -0 0 0 0 -0 -0 -0 -0 -0 -1 -1 -1 -1 -0 -0 -0 -1 -1 -1 -0 -0 -0 0 0 0 0 0 1 1 0 0 0 -0 -0 -0 -0 -0 -0 -0 -0 -0 0 0 0 0 0 1 1 1 1
0 1 1 1 1 1 0 0 1 1 0 -0 -1 -2 -2 -2 -2 -1 -1 0 0 0 0 0 0 0 0 0 0 0 0 0 -0 -0 -1 -1 -1 -0 -0 -0 0 1 1 1 0 1 1 1 0 0 0 0 0 -0 -0 -0 0 0 0 0 0 1 1 1 1 1 1 1 1
-0 0 1 1 1 1 0 0 0 0 1 0 0 -0 -1 -2 -2 -1 -1 -0 0 0 0 0 0 0 0 0 1 1 1 1 0 -0 -1 -1 -0 -0 0 0 1 1 1 1 1 1 1 0 -0 -0 0 0 0 -0 -0 -0 0 0 0 1 1 1 1 1 1 1 1 1 1
-0 -0 0 0 1 1 0 -0 -0 -0 0 0 0 0 -0 -1 -1 -1 -1 -1 -0 -0 0 0 1 1 1 1 1 1 1 1 1 0 0 0 -0 -0 0 0 1 1 1 1 1 1 0 -0 -0 -0 -0 0 -0 -0 -1 -0 0 0 0 1 1 1 1 1 1 1 1 1 1
-1 -1 -0 0 1 1 0 0 -0 -0 -0 -0 -0 0 0 0 -0 -0 -1 -1 -1 -1 -0 0 0 0 0 0 1 1 2 2 1 1 1 1 1 1 0 0 0 0 0 0 0 0 -0 -0 -0 -0 -0 -0 -0 -0 -1 -1 -0 -0 0 0 1 1 1 1 1 1 1 1 1
-2 -1 -1 -0 0 1 1 1 0 -0 -1 -1 -0 -0 0 0 1 0 0 -1 -1 -1 -1 -1 -1 -1 -1 -0 0 1 1 1 2 2 2 2 2 2 2 1 1 0 0 0 0 0 0 -0 0 0 0 -0 -0 -0 -1 -1 -0 -0 0 0 0 1 1 1 1 1 1 1 1
-2 -2 -1 -1 -0 0 1 1 0 0 -0 -0 -0 -0 -0 0 0 1 0 0 -0 -0 -1 -1 -1 -1 -1 0 0 -0 -0 0 1 2 2 2 2 2 2 2 1 1 1 1 1 0 -0 -0 -0 0 0 0 -0 -0 -0 -0 0 -0 -0 0 0 1 1 1 1 0 0 0 0
-2 -2 -2 -1 -1 -0 0 0 0 0 0 0 0 0 -0 -0 0 0 1 1 1 0 -0 -1 -1 -1 0 0 -1 -1 -1 0 1 1 1 2 2 2 2 1 1 2 1 1 1 0 -0 -1 -1 -0 -0 0 0 0 0 0 0 0 0 0 0 1 1 1 0 0 0 0 0
-1 -2 -2 -2 -1 -1 -0 0 0 0 0 0 0 0 0 0 0 0 0 1 1 1 1 0 0 -0 -0 -1 -1 -0 0 0 0 1 1 2 2 2 1 1 1 2 1 1 1 0 -0 -1 -1 -0 -0 0 0 0 0 0 0 0 0 0 0 0 0 0 0 -0 0 0 0
-1 -1 -1 -2 -2 -2 -1 -1 0 0 0 0 0 0 0 0 0 0 0 1 1 1 1 1 0 -0 -1 -1 -0 0 1 0 -0 0 1 2 2 1 1 1 1 1 1 0 0 0 0 -1 -0 -0 0 0 0 0 0 0 0 0 0 -0 0 0 0 0 -0 -0 0 0 1
-1 -1 -1 -2 -2 -2 -2 -1 -0 0 0 0 0 0 0 0 0 0 0 0 0 1 1 1 0 -0 -1 -1 -0 0 0 -0 -0 0 1 1 1 1 1 1 1 0 -0 -1 0 0 0 -1 -0 0 0 1 0 0 0 0 0 -0 -0 -0 -0 -0 -0 -0 0 0 0 1 1
-1 -1 -1 -2 -2 -2 -2 -1 -1 -0 0 0 0 0 0 0 0 0 -0 -0 0 0 0 0 0 0 -0 -1 -0 -0 -0 -0 -0 -0 0 1 1 1 1 1 1 -0 -1 -1 -0 0 0 -0 0 1 1 0 0 0 0 0 0 0 -0 -0 -0 -0 0 0 0 0 1 1 1
-0 -0 -1 -1 -1 -1 -1 -1 -1 -0 -0 0 0 0 0 0 0 -0 -0 -0 0 0 0 0 0 0 0 0 -0 -0 -0 -1 -1 -0 -0 0 0 1 1 1 0 -0 -1 -0 0 0 0 0 0 0 0 -0 -0 -0 -0 0 0 0 0 0 0 0 1 1 1 1 1 1 1
-0 -0 -0 -1 -1 -1 -1 -1 -0 -0 0 0 -0 -0 -0 -0 -0 -0 -0 0 1 1 0 0 0 0 0 0 -0 -0 -1 -1 -1 -1 -0 -0 0 1 1 0 0 0 0 0 0 0 0 0 0 0 -0 -1 -0 -0 -0 -0 0 0 0 0 1 1 1 1 1 1 1 1 1
-1 -0 0 0 0 -0 -0 -0 -0 0 -0 -0 -1 -1 -1 -1 -0 -0 0 1 1 1 0 0 0 0 0 -0 -0 -0 -0 -0 -1 -1 -0 -0 -0 0 0 0 0 0 1 1 1 1 0 0 0 0 -0 -1 -0 -1 -1 -1 -0 0 0 1 1 1 1 1 1 1 1 1 0
-1 -0 0 1 1 0 0 0 0 0 -0 -1 -1 -1 -1 -1 -0 -0 -0 0 1 1 1 1 1 0 0 0 1 1 1 0 -0 -0 -1 -1 -1 -0 -0 0 0 0 0 1 1 1 0 1 1 0 0 -0 -0 -1 -1 -1 -0 0 1 1 1 1 1 1 1 1 1 1 0
-1 -0 1 1 1 1 1 0 0 -0 -1 -1 -1 -1 -1 -1 -1 -1 -0 0 1 1 1 1 1 0 0 1 1 1 1 1 0 -0 -1 -1 -1 -1 -0 0 0 0 0 1 1 1 0 1 1 0 0 0 -0 -1 -1 -1 0 1 1 1 1 1 1 1 1 1 1 1 1
-1 0 1 2 1 1 1 1 0 -0 -1 -1 -1 -1 -1 -2 -2 -1 -0 1 1 1 1 1 1 1 1 1 1 2 2 2 1 0 -0 -1 -1 -0 -0 0 0 0 0 1 1 1 1 1 1 0 0 0 -0 -0 -1 -0 0 0 1 1 1 1 1 0 0 1 1 1 1
Height
3033 3034 3034 3034 3035 3036 3037 3037 3038 3039 3040 3041 3042 3043 3044 3046 3047 3049 3050 3052 3053 3054 3056 3057 3059 3060 3062 3063 3064 3065 3066 3067 3068 3068 3069 3070 3070 3071 3072 3073 3074 3076 3077 3078 3079 3080 3082 3083 3084 3085 3086 3087 3089 3090 3091 3092 3093 3094 3095 3096 3097 3098 3099 3100 3101 3102 3103 3103 3104
3031 3032 3032 3033 3034 3034 3035 3035 3036 3037 3038 3039 3040 3041 3043 3044 3046 3047 3049 3050 3051 3052 3054 3055 3057 3059 3060 3061 3062 3063 3064 3065 3066 3067 3067 3068 3069 3069 3070 3072 3073 3074 3075 3077 3078 3079 3080 3081 3082 3083 3084 3085 3087 3088 3089 3090 3091 3092 3093 3094 3095 3096 3097 3098 3099 3099 3100 3101 3102
3030 3030 3031 3032 3032 3033 3033 3034 3034 3035 3036 3037 3038 3039 3041 3042 3044 3045 3047 3048 3049 3050 3052 3053 3055 3057 3059 3060 3061 3062 3063 3064 3065 3065 3066 3067 3067 3068 3069 3070 3071 3073 3074 3075 3076 3078 3079 3079 3080 3081 3083 3084 3085 3086 3087 3088 3089 3090 3091 3092 3093 3094 3095 3096 3097 3097 3098 3099 3100
3029 3029 3029 3030 3030 3031 3032 3032 3033 3034 3034 3035 3036 3037 3038 3040 3041 3043 3044 3046 3047 3049 3050 3051 3053 3054 3056 3058 3059 3060 3061 3062 3063 3064 3065 3065 3066 3067 3067 3068 3069 3071 3072 3074 3075 3076 3077 3078 3079 3080 3081 3082 3083 3084 3085 3086 3087 3088 3089 3090 3091 3092 3093 3094 3094 3095 3096 3097 3098
3028 3028 3028 3028 3029 3029 3030 3031 3032 3032 3033 3034 3034 3035 3036 3037 3039 3040 3042 3044 3045 3046 3047 3049 3050 3052 3054 3055 3057 3058 3059 3061 3062 3063 3064 3064 3065 3065 3066 3066 3067 3069 3070 3071 3073 3074 3075 3076 3077 3078 3079 3080 3081 3082 3083 3084 3085 3086 3087 3088 3089 3090 3090 3091 3092 3093 3094 3094 3095
3026 3026 3027 3027 3028 3028 3029 3029 3030 3031 3031 3032 3033 3034 3034 3035 3037 3038 3040 3041 3042 3044 3045 3047 3048 3049 3051 3053 3054 3056 3057 3059 3060 3061 3062 3063 3063 3064 3064 3064 3065 3066 3068 3070 3071 3073 3074 3075 3076 3077 3077 3078 3079 3080 3081 3082 3083 3084 3085 3086 3087 3088 3089 3089 3090 3091 3092 3092 3093
3024 3025 3025 3026 3026 3026 3027 3028 3028 3029 3030 3031 3031 3032 3033 3034 3035 3036 3037 3039 3040 3042 3043 3044 3045 3047 3048 3050 3051 3053 3054 3056 3057 3059 3060 3061 3062 3062 3062 3063 3064 3064 3066 3068 3070 3071 3072 3073 3074 3075 3076 3077 3077 3078 3079 3080 3081 3082 3083 3084 3084 3085 3086 3087 3088 3089 3089 3090 3091
3023 3024 3024 3024 3024 3025 3025 3026 3027 3028 3029 3029 3029 3030 3031 3032 3033 3034 3035 3037 3038 3039 3040 3041 3043 3044 3046 3047 3049 3050 3052 3053 3055 3056 3058 3059 3060 3060 3061 3061 3062 3063 3065 3066 3068 3069 3070 3071 3072 3073 3074 3075 3075 3076 3077 3078 3079 3080 3081 3082 3083 3084 3084 3085 3086 3087 3087 3088 3089
3022 3022 3022 3022 3023 3023 3024 3024 3025 3026 3027 3027 3028 3029 3029 3030 3031 3032 3034 3035 3036 3037 3038 3039 3040 3042 3043 3044 3046 3047 3049 3050 3052 3054 3055 3057 3058 3059 3059 3060 3060 3062 3063 3064 3066 3067 3068 3069 3070 3071 3072 3073 3074 3074 3075 3076 3077 3078 3079 3080 3081 3081 3082 3083 3084 3084 3085 3086 3087
3021 3021 3021 3021 3021 3021 3022 3022 3023 3024 3024 3025 3026 3027 3028 3029 3030 3031 3032 3033 3034 3035 3036 3037 3038 3039 3041 3042 3044 3045 3046 3048 3049 3051 3053 3054 3056 3057 3058 3059 3059 3060 3061 3062 3064 3065 3066 3067 3068 3069 3069 3070 3071 3072 3073 3074 3075 3076 3077 3078 3079 3079 3080 3081 3082 3083 3083 3084 3085
3020 3020 3020 3020 3020 3020 3020 3020 3021 3022 3023 3024 3024 3025 3026 3027 3028 3029 3030 3030 3032 3033 3034 3035 3036 3037 3039 3040 3041 3043 3044 3046 3047 3049 3050 3052 3053 3055 3056 3057 3058 3058 3059 3060 3061 3062 3064 3065 3066 3067 3067 3068 3069 3070 3071 3072 3073 3074 3075 3076 3077 3077 3078 3079 3080 3080 3081 3082 3083
3019 3019 3019 3019 3019 3019 3019 3019 3019 3020 3020 3021 3022 3023 3024 3025 3026 3027 3028 3029 3030 3031 3032 3033 3034 3036 3037 3038 3039 3041 3042 3044 3045 3046 3048 3049 3051 3053 3054 3055 3056 3057 3057 3058 3059 3060 3061 3063 3064 3064 3065 3066 3067 3068 3069 3070 3071 3072 3073 3074 3074 3075 3076 3077 3078 3078 3079 3080 3080
3018 3018 3018 3017 3017 3017 3017 3018 3018 3018 3019 3019 3020 3021 3022 3023 3024 3025 3026 3027 3028 3029 3030 3032 3033 3034 3035 3036 3038 3039 3040 3041 3043 3044 3046 3047 3049 3050 3051 3053 3054 3055 3056 3057 3058 3059 3059 3060 3061 3062 3063 3064 3064 3065 3066 3068 3069 3069 3070 3071 3072 3073 3074 3074 3075 3076 3077 3077 3078
3017 3017 3016 3016 3016 3016 3016 3016 3016 3017 3017 3018 3018 3019 3020 3021 3022 3023 3024 3025 3026 3027 3029 3030 3031 3032 3033 3034 3035 3037 3038 3039 3040 3042 3043 3044 3046 3047 3049 3050 3051 3052 3053 3054 3055 3056 3057 3058 3059 3060 3060 3061 3062 3063 3064 3065 3066 3067 3068 3069 3070 3071 3071 3072 3073 3074 3074 3075 3076
3015 3015 3015 3015 3015 3015 3015 3015 3015 3015 3015 3016 3016 3017 3018 3019 3019 3020 3022 3023 3024 3025 3026 3027 3028 3029 3030 3032 3033 3034 3035 3037 3038 3039 3040 3042 3043 3044 3046 3047 3048 3049 3050 3052 3053 3054 3054 3055 3056 3057 3058 3059 3060 3061 3062 3063 3064 3065 3066 3067 3068 3069 3069 3070 3071 3071 3072 3073 3074
3014 3014 3014 3014 3014 3014 3014 3014 3014 3014 3014 3014 3014 3015 3016 3016 3017 3018 3019 3020 3021 3023 3024 3025 3026 3027 3028 3029 3030 3031 3033 3034 3035 3036 3038 3039 3040 3041 3043 3044 3045 3046 3047 3049 3049 3051 3052 3053 3054 3054 3055 3056 3058 3059 3060 3061 3062 3063 3064 3065 3065 3066 3067 3068 3068 3069 3069 3070 3071
3013 3013 3013 3013 3013 3013 3013 3013 3013 3013 3013 3013 3013 3013 3014 3014 3015 3016 3017 3018 3019 3020 3021 3022 3023 3024 3025 3026 3027 3028 3029 3031 3032 3033 3034 3036 3037 3038 3039 3041 3042 3043 3044 3046 3047 3048 3049 3050 3051 3052 3053 3054 3055 3056 3057 3058 3059 3060 3061 3062 3063 3064 3064 3065 3066 3067 3067 3068 3069
3012 3012 3012 3011 3011 3011 3011 3011 3011 3011 3011 3011 3012 3012 3012 3013 3014 3014 3015 3016 3017 3018 3019 3019 3020 3021 3023 3023 3024 3025 3027 3028 3029 3030 3031 3033 3034 3035 3036 3038 3039 3040 3041 3043 3044 3045 3046 3047 3048 3049 3050 3051 3052 3053 3054 3055 3056 3058 3059 3059 3060 3061 3062 3063 3064 3064 3065 3066 3067
3012 3011 3010 3010 3010 3010 3010 3010 3010 3010 3010 3010 3010 3010 3011 3011 3012 3013 3013 3014 3015 3016 3016 3017 3018 3019 3020 3021 3022 3023 3024 3025 3026 3027 3029 3030 3031 3032 3034 3034 3036 3037 3038 3039 3040 3041 3043 3044 3045 3046 3047 3048 3049 3050 3051 3052 3053 3054 3055 3057 3058 3059 3059 3060 3061 3062 3063 3064 3064
3011 3010 3009 3009 3009 3009 3009 3009 3009 3009 3009 3009 3009 3009 3009 3010 3010 3011 3012 3012 3013 3014 3014 3015 3016 3017 3018 3019 3020 3021 3022 3023 3024 3025 3026 3027 3028 3029 3030 3031 3033 3034 3035 3036 3037 3038 3039 3040 3042 3043 3044 3045 3046 3047 3048 3049 3050 3051 3052 3053 3054 3055 3056 3057 3058 3059 3060 3061 3062
3009 3009 3009 3008 3008 3008 3007 3007 3008 3008 3008 3008 3008 3008 3008 3009 3009 3009 3010 3011 3011 3012 3013 3014 3014 3015 3016 3017 3018 3019 3019 3020 3021 3023 3024 3024 3026 3027 3028 3029 3030 3031 3032 3033 3034 3035 3036 3037 3039 3039 3040 3042 3043 3044 3045 3046 3047 3048 3049 3050 3051 3052 3053 3054 3055 3056 3057 3058 3059
3009 3008 3008 3007 3007 3007 3006 3006 3006 3006 3007 3007 3007 3007 3007 3007 3008 3008 3009 3009 3010 3010 3011 3012 3013 3014 3014 3015 3016 3017 3018 3019 3019 3020 3021 3022 3023 3024 3025 3026 3027 3028 3029 3030 3031 3032 3033 3034 3035 3036 3037 3039 3039 3041 3042 3043 3044 3045 3046 3047 3048 3049 3050 3051 3052 3054 3054 3055 3056
3007 3007 3007 3006 3006 3005 3005 3005 3005 3005 3005 3005 3005 3006 3006 3006 3007 3007 3007 3008 3009 3009 3009 3010 3011 3012 3013 3014 3014 3015 3016 3017 3018 3019 3019 3020 3021 3022 3023 3024 3025 3025 3026 3027 3028 3029 3030 3031 3032 3034 3034 3036 3037 3038 3039 3040 3041 3042 3043 3044 3045 3046 3047 3049 3049 3050 3051 3052 3053
3006 3006 3006 3005 3005 3004 3004 3004 3004 3004 3004 3004 3004 3004 3005 3005 3005 3006 3006 3007 3007 3008 3008 3009 3009 3010 3011 3012 3013 3014 3014 3015 3016 3017 3018 3019 3019 3020 3021 3022 3023 3023 3024 3025 3026 3027 3028 3029 3030 3031 3032 3033 3034 3035 3036 3037 3038 3039 3040 3041 3043 3044 3045 3046 3047 3048 3049 3049 3050
3005 3005 3004 3004 3004 3003 3003 3003 3003 3003 3003 3003 3003 3003 3004 3004 3004 3005 3005 3005 3006 3006 3007 3007 3008 3009 3009 3010 3011 3012 3013 3014 3014 3015 3016 3017 3018 3019 3019 3020 3021 3021 3022 3023 3024 3025 3026 3027 3028 3029 3030 3031 3032 3033 3034 3035 3036 3037 3038 3039 3040 3041 3042 3043 3044 3045 3046 3047 3048
3004 3004 3003 3003 3003 3002 3002 3002 3001 3001 3001 3002 3002 3002 3002 3003 3003 3004 3004 3004 3005 3005 3005 3006 3006 3007 3008 3009 3009 3010 3011 3012 3013 3014 3014 3015 3016 3017 3018 3018 3019 3020 3020 3021 3022 3023 3024 3024 3025 3027 3028 3029 3029 3031 3032 3033 3034 3035 3036 3037 3038 3039 3040 3041 3042 3043 3044 3044 3045
3002 3002 3002 3002 3001 3001 3001 3000 3000 3000 3000 3000 3000 3000 3001 3001 3002 3002 3003 3003 3004 3004 3004 3005 3005 3006 3006 3007 3008 3009 3009 3010 3011 3012 3013 3014 3014 3015 3016 3017 3017 3018 3019 3019 3020 3021 3022 3023 3024 3024 3025 3027 3028 3029 3029 3031 3032 3033 3034 3035 3035 3037 3038 3039 3039 3040 3041 3042 3043
3001 3001 3000 3000 3000 3000 2999 2999 2999 2999 2999 2999 2999 2999 2999 3000 3000 3001 3001 3002 3002 3003 3003 3003 3004 3004 3005 3006 3006 3007 3008 3009 3009 3010 3011 3012 3013 3014 3014 3015 3016 3016 3017 3018 3019 3019 3020 3021 3022 3023 3024 3024 3025 3027 3028 3029 3030 3031 3032 3033 3034 3034 3035 3036 3037 3038 3039 3040 3040
2999 2999 2999 2999 2999 2999 2998 2998 2998 2997 2997 2997 2998 2998 2998 2999 2999 2999 3000 3000 3001 3001 3001 3002 3002 3003 3004 3004 3005 3005 3006 3007 3008 3009 3009 3010 3011 3012 3012 3013 3014 3014 3015 3016 3017 3017 3018 3019 3020 3021 3022 3023 3024 3024 3026 3027 3028 3029 3029 3030 3031 3032 3033 3034 3035 3036 3037 3037 3038
2998 2998 2998 2998 2997 2997 2997 2997 2996 2996 2996 2996 2996 2996 2997 2997 2997 2998 2998 2999 2999 2999 3000 3001 3001 3002 3002 3003 3004 3004 3005 3006 3006 3007 3008 3009 3009 3010 3011 3011 3012 3013 3014 3014 3015 3016 3016 3017 3018 3019 3020 3021 3022 3023 3024 3025 3026 3027 3028 3029 3029 3030 3031 3032 3033 3034 3034 3035 3036
2997 2997 2996 2996 2996 2996 2995 2995 2995 2995 2995 2994 2995 2995 2995 2995 2996 2996 2997 2997 2998 2998 2999 2999 3000 3000 3001 3001 3002 3003 3004 3004 3005 3005 3006 3007 3008 3008 3009 3010 3010 3011 3012 3013 3013 3014 3015 3015 3016 3017 3018 3019 3020 3021 3022 3023 3024 3025 3026 3026 3027 3028 3029 3030 3031 3031 3032 3033 3034
2995 2995 2995 2995 2994 2994 2994 2994 2994 2994 2993 2993 2993 2993 2994 2994 2994 2994 2995 2996 2996 2997 2997 2998 2998 2999 2999 3000 3001 3001 3002 3002 3003 3004 3004 3005 3006 3006 3007 3008 3009 3009 3010 3011 3012 3012 3013 3014 3015 3015 3016 3017 3018 3019 3020 3021 3022 3023 3024 3024 3025 3026 3027 3028 3029 3029 3030 3031 3032
2994 2994 2993 2993 2993 2993 2993 2993 2992 2992 2992 2992 2992 2992 2992 2992 2992 2993 2993 2994 2994 2995 2995 2996 2996 2997 2998 2998 2999 2999 3000 3001 3001 3002 3003 3004 3004 3005 3005 3006 3007 3008 3008 3009 3010 3011 3011 3012 3013 3014 3014 3015 3016 3017 3018 3019 3020 3021 3022 3023 3024 3024 3025 3026 3027 3027 3028 3029 3029
2992 2992 2992 2992 2991 2991 2991 2991 2991 2991 2990 2990 2990 2990 2990 2990 2991 2991 2991 2992 2993 2993 2994 2994 2995 2995 2996 2997 2997 2998 2999 2999 3000 3000 3001 3002 3002 3003 3004 3004 3005 3006 3007 3007 3009 3009 3009 3010 3011 3012 3013 3014 3014 3015 3016 3017 3018 3019 3020 3021 3021 3022 3023 3024 3024 3025 3026 3027 3027
2990 2990 2990 2990 2990 2989 2989 2989 2989 2989 2989 2989 2989 2989 2989 2989 2989 2989 2990 2990 2991 2991 2992 2993 2993 2994 2994 2995 2995 2996 2997 2997 2998 2999 2999 3000 3001 3001 3002 3003 3003 3004 3005 3006 3007 3007 3008 3009 3009 3010 3011 3011 3012 3013 3014 3015 3016 3017 3018 3019 3019 3020 3021 3022 3022 3023 3024 3024 3025
2988 2988 2988 2988 2988 2988 2988 2988 2988 2988 2988 2987 2987 2987 2987 2987 2987 2987 2988 2988 2989 2989 2990 2991 2991 2992 2993 2993 2994 2994 2995 2995 2996 2997 2998 2998 2999 2999 3000 3001 3001 3002 3003 3004 3004 3005 3006 3007 3007 3008 3009 3009 3010 3011 3012 3013 3014 3015 3016 3016 3017 3018 3019 3019 3020 3021 3022 3023 3024
2986 2986 2986 2986 2986 2986 2986 2986 2986 2986 2986 2986 2985 2985 2985 2985 2985 2985 2986 2986 2987 2988 2988 2989 2989 2990 2990 2991 2992 2992 2993 2994 2994 2995 2996 2997 2997 2998 2998 2999 3000 3000 3001 3002 3003 3004 3004 3005 3005 3006 3007 3007 3008 3009 3010 3011 3012 3013 3014 3014 3015 3016 3017 3018 3018 3019 3020 3021 3022
2984 2984 2984 2984 2984 2984 2984 2984 2984 2984 2984 2984 2984 2984 2983 2983 2983 2984 2984 2984 2985 2985 2986 2987 2987 2988 2989 2989 2990 2991 2991 2992 2993 2994 2994 2995 2995 2996 2997 2997 2998 2999 2999 3000 3001 3002 3002 3003 3004 3004 3005 3005 3006 3007 3008 3009 3010 3011 3012 3012 3013 3014 3015 3015 3016 3017 3018 3019 3020
2982 2982 2983 2983 2983 2983 2983 2982 2982 2982 2982 2982 2982 2982 2982 2981 2981 2982 2982 2983 2983 2984 2984 2985 2985 2986 2986 2987 2988 2989 2990 2990 2991 2992 2992 2993 2994 2994 2995 2995 2996 2996 2997 2998 2999 2999 3000 3001 3002 3002 3003 3004 3004 3005 3006 3007 3008 3009 3010 3010 3011 3012 3013 3014 3014 3015 3016 3017 3018
2980 2980 2981 2981 2981 2981 2981 2981 2980 2980 2980 2980 2980 2980 2980 2980 2980 2980 2980 2980 2981 2982 2982 2983 2983 2984 2984 2985 2986 2987 2988 2989 2989 2990 2990 2991 2992 2993 2993 2994 2994 2995 2995 2996 2997 2997 2998 2999 3000 3000 3001 3002 3003 3004 3004 3005 3006 3007 3008 3009 3009 3010 3011 3012 3013 3014 3014 3015 3016
2978 2979 2979 2979 2979 2979 2979 2979 2979 2979 2978 2978 2978 2978 2978 2978 2978 2978 2978 2979 2979 2980 2980 2981 2981 2982 2983 2984 2984 2985 2986 2987 2987 2988 2989 2989 2990 2991 2991 2992 2992 2993 2994 2994 2994 2995 2996 2997 2998 2998 2999 3000 3001 3002 3003 3004 3004 3005 3006 3007 3008 3009 3009 3010 3011 3012 3013 3014 3014